Retour au catalogue

SHIJIAN 6 04B

SJ-6 04B

ActifScienceSSO
NORAD 37180·PAYLOAD·🇨🇳 China

Lancé Oct 6, 2010 depuis Taiyuan Satellite Launch Center

Loading…

Prochains Passages (prochaines 24 heures)

TLE

FraisSource: Space-Track

Époque: Sep 14, 2026, 13:57 UTC

1 37180U 10051B   26257.58135706  .00001048  00000-0  90377-4 0  9996
2 37180  97.8766 263.9506 0012856  27.1390 333.0502 14.99474953869070

Suivez SHIJIAN 6 04B en temps réel avec AllMySat

Download on the App Store